Location: Newark
(45.2500°N, 7.5833°E)
Time: 18:08:45
(UTC+00:00)

BEESAT 2 - Pass Details

Date: 25 February 2020
Orbit: 494 x 533 km, 64.9° (Epoch: 04 April)

Event Time Altitude Azimuth Distance (km) Brightness Sun altitude
Rises 19:25:54 0° 327° (NNW) 2,688 ? -24.5°
Reaches altitude 10° 19:28:09 10° 332° (NNW) 1,795 ? -24.9°
Enters shadow 19:30:32 32° 350° (N) 934 ? -25.3°
